Location: Newark
(31.5350°N, 35.0986°E)
Time: 21:18:55
(UTC+00:00)

Vanguard 1 - Pass Details

Date: 27 September 2019
Orbit: 653 x 3830 km, 34.2° (Epoch: 17 October)

Event Time Altitude Azimuth Distance (km) Brightness Sun altitude
Rises 17:26:40 0° 176° (S) 5,620 13.8 -25.4°
Enters shadow 17:32:31 10° 155° (SSE) 5,261 13.4 -26.6°
Reaches altitude 10° 17:32:40 10° 155° (SSE) 5,258 - -26.6°
Maximum altitude 17:40:44 15° 124° (SE) 5,513 - -28.3°
Drops below altitude 10° 17:50:27 10° 96° (E) 6,585 - -30.3°
Sets 17:59:46 0° 78° (ENE) 7,925 - -32.1°
